Date,TemperatureHighF,TemperatureAvgF,TemperatureLowF,DewpointHighF,DewpointAvgF,DewpointLowF,HumidityHigh,HumidityAvg,HumidityLow,PressureMaxIn,PressureMinIn,WindSpeedMaxMPH,WindSpeedAvgMPH,GustSpeedMaxMPH,PrecipitationSumIn
2013-1-1,60.3,51.3,40.6,56.6,49.7,39.5,97,95,87,30.20,30.00,13,1,13,1.64
2013-1-2,40.7,37.6,35.1,39.5,35.5,31.9,96,92,88,30.31,30.16,11,1,11,0.00
2013-1-3,47.2,38.5,33.0,32.4,29.4,26.2,88,71,49,30.46,30.29,10,1,10,0.00
2013-1-4,51.2,41.4,30.8,35.5,31.9,27.6,90,70,46,30.54,30.42,8,0,8,0.00
2013-1-5,47.6,41.5,35.9,41.9,38.0,32.4,95,88,64,30.46,30.32,5,0,5,0.13
2013-1-6,52.2,43.7,35.3,43.2,40.2,33.5,95,88,70,30.39,30.29,10,1,10,0.04
2013-1-7,54.4,42.0,32.1,40.3,36.0,30.3,95,81,52,30.42,30.25,9,0,9,0.00
2013-1-8,62.2,51.2,38.3,53.7,46.2,35.9,94,83,69,30.29,30.15,6,0,6,0.08
2013-1-9,62.5,58.5,55.4,61.6,57.4,53.9,97,96,95,30.28,30.18,13,0,13,0.28
2013-1-10,67.8,64.3,60.7,65.7,63.0,59.3,97,96,93,30.24,29.93,19,1,19,0.42
2013-1-11,68.1,64.7,61.1,66.6,63.1,60.2,97,95,88,30.13,30.02,10,0,10,0.06
2013-1-12,77.3,71.0,68.1,68.8,67.0,64.9,96,88,73,30.06,29.88,18,2,18,0.02
2013-1-13,74.7,58.4,41.5,68.4,55.3,39.5,95,90,69,30.19,29.82,22,3,22,0.86
2013-1-14,42.5,37.8,33.6,40.4,36.2,32.0,96,94,90,30.28,30.16,19,2,19,1.34
2013-1-15,38.7,36.5,34.8,37.7,35.5,33.8,96,96,95,30.20,30.06,13,1,13,1.09
2013-1-16,35.9,34.8,33.7,34.8,33.7,32.5,96,96,95,30.22,30.07,15,1,15,0.49
2013-1-17,48.2,39.2,32.1,38.3,34.9,30.9,100,85,60,30.50,30.15,17,1,17,0.22
2013-1-18,54.4,41.7,33.2,40.1,34.9,31.1,92,78,48,30.61,30.43,11,0,11,0.00
2013-1-19,60.9,44.6,30.2,44.5,37.7,28.4,95,79,50,30.43,30.27,7,0,7,0.00
2013-1-20,63.6,46.8,32.9,45.5,39.3,31.5,97,78,43,30.31,30.18,7,0,7,0.00
2013-1-21,56.9,44.6,35.0,46.8,37.3,32.1,96,77,52,30.31,30.18,12,1,12,0.00
2013-1-22,49.4,41.7,33.7,37.6,30.0,23.7,85,64,45,30.44,30.30,13,0,13,0.00
2013-1-23,68.8,53.0,37.2,49.6,43.1,33.2,88,71,45,30.41,30.27,8,0,8,0.00
2013-1-24,65.5,56.6,50.7,58.2,53.0,47.1,94,88,76,30.36,30.23,8,0,8,0.00
2013-1-25,74.4,61.2,53.2,59.0,55.3,51.1,95,82,54,30.25,30.11,12,1,12,0.00
2013-1-26,54.1,50.7,47.2,51.2,48.2,44.9,96,91,84,30.31,30.21,8,0,8,0.00
2013-1-27,73.3,59.0,47.1,59.9,52.5,44.6,96,81,55,30.33,30.20,12,1,12,0.00
2013-1-28,71.8,63.5,58.0,63.6,59.2,55.1,94,86,71,30.28,30.14,11,1,11,0.00
2013-1-29,78.2,70.7,63.2,67.0,64.5,60.8,94,81,66,30.14,29.72,18,3,18,0.00
2013-1-30,73.2,53.7,39.2,66.9,45.7,30.4,96,75,56,30.16,29.66,24,3,24,0.97
2013-1-31,59.1,45.9,33.2,34.8,30.0,24.3,87,57,28,30.32,30.15,14,1,14,0.00
2013-2-1,50.7,42.7,35.9,35.4,27.5,20.3,72,56,33,30.51,30.31,15,1,15,0.00
2013-2-2,67.5,49.7,34.8,48.6,36.8,22.4,90,62,46,30.38,30.19,18,1,18,0.00
2013-2-3,65.5,48.8,35.5,44.1,36.0,29.5,96,67,28,30.30,30.17,15,1,15,0.00
2013-2-4,58.7,50.0,41.3,44.8,37.8,32.5,82,64,47,30.18,30.00,8,0,8,0.00
2013-2-5,63.4,54.9,48.3,57.5,51.7,44.1,96,89,75,30.10,29.97,6,0,6,0.00
2013-2-6,69.5,56.8,43.9,58.1,52.0,42.6,97,85,63,30.19,30.01,7,0,7,0.14
2013-2-7,66.6,58.6,52.0,59.3,55.9,50.4,96,91,74,30.05,29.92,7,0,7,0.01
2013-2-8,58.0,53.4,42.1,56.5,50.0,38.8,96,89,77,30.27,29.97,14,1,14,0.00
2013-2-9,63.2,49.2,34.8,48.1,40.4,33.3,94,74,44,30.31,30.10,8,1,8,0.00
2013-2-10,62.7,58.5,53.7,61.1,56.5,47.0,97,93,78,30.11,29.87,17,2,17,1.98
2013-2-11,61.3,53.2,49.6,60.4,52.1,48.5,97,96,94,30.24,30.02,7,0,7,0.57
2013-2-12,49.9,48.9,47.2,49.1,47.8,45.7,97,96,89,30.16,29.81,25,1,25,1.01
2013-2-13,49.9,45.8,35.9,49.1,41.7,33.7,97,86,73,30.12,29.85,18,2,18,0.00
2013-2-14,59.5,43.9,31.3,44.5,37.5,29.9,97,81,49,30.19,30.10,6,0,6,0.00
2013-2-15,60.7,47.1,33.7,44.2,38.0,32.2,96,73,43,30.23,30.14,12,1,12,0.00
2013-2-16,47.4,41.1,30.8,34.0,25.3,17.0,76,55,32,30.34,30.22,18,2,18,0.00
2013-2-17,60.4,44.2,28.4,37.0,29.3,23.7,85,59,34,30.38,30.21,11,1,11,0.00
2013-2-18,67.1,53.6,42.1,55.4,45.7,35.6,95,75,57,30.24,29.91,22,3,22,0.46
2013-2-19,56.4,49.6,39.1,55.0,38.4,28.3,95,67,36,30.32,29.99,18,2,18,0.07
2013-2-20,53.9,43.9,34.8,32.3,27.8,23.0,84,55,32,30.33,30.13,11,1,11,0.00
2013-2-21,61.2,50.1,40.8,60.3,41.4,25.9,97,74,49,30.13,29.77,15,1,15,2.13
2013-2-22,63.7,54.2,47.8,55.4,51.0,46.4,96,90,61,30.08,29.93,9,1,9,0.12
2013-2-23,57.9,48.6,40.1,48.4,43.8,37.6,98,84,67,30.05,29.94,10,1,10,0.00
2013-2-24,69.5,52.3,36.9,45.8,40.7,34.2,94,68,38,30.08,29.81,11,1,11,0.00
2013-2-25,62.4,57.9,52.2,60.7,54.1,42.7,96,88,59,29.83,29.42,19,1,22,0.59
2013-2-26,55.5,45.6,36.4,51.6,37.6,34.3,92,74,64,29.94,29.51,19,2,19,0.00
2013-2-27,61.9,47.4,33.6,41.4,37.3,32.1,96,71,40,30.08,29.94,15,1,15,0.00
2013-2-28,52.7,44.3,36.4,38.8,33.0,29.4,88,66,44,30.17,30.06,15,1,15,0.00
2013-3-1,46.9,38.7,30.9,34.5,30.7,27.0,94,74,52,30.23,30.13,15,1,15,0.00
2013-3-2,38.2,34.8,29.5,30.2,27.0,22.0,90,73,62,30.30,30.19,18,2,18,0.00
2013-3-3,52.8,38.5,25.5,29.7,24.9,21.3,89,60,32,30.32,30.14,15,1,15,0.00
2013-3-4,71.2,55.1,38.5,54.8,41.9,27.3,80,63,38,30.14,29.88,19,2,19,0.00
2013-3-5,68.5,56.8,46.3,61.3,48.5,28.4,90,75,48,30.24,29.90,21,2,21,0.02
2013-3-6,52.2,44.6,39.3,33.1,29.7,25.6,75,56,43,30.38,30.24,19,2,19,0.00
2013-3-7,59.9,45.0,33.9,37.2,33.5,29.6,87,66,35,30.42,30.29,8,0,8,0.00
2013-3-8,69.0,52.1,34.5,44.0,38.3,32.4,93,64,31,30.37,30.19,8,0,8,0.00
2013-3-9,75.5,61.4,49.7,55.6,43.8,30.1,83,56,21,30.22,29.99,15,2,15,0.00
2013-3-10,77.4,63.6,54.8,63.2,57.9,53.2,96,83,60,30.02,29.83,19,2,19,1.65
2013-3-11,55.7,48.7,41.4,52.6,42.2,37.6,96,79,53,30.07,29.91,16,1,16,0.66
2013-3-12,62.9,47.6,34.2,41.6,36.4,30.4,96,69,31,30.27,30.07,11,1,11,0.00
2013-3-13,57.7,48.8,38.8,39.1,32.1,23.2,92,56,27,30.45,30.27,18,2,18,0.00
2013-3-14,67.8,50.9,34.3,40.1,33.1,28.0,82,54,28,30.49,30.28,12,0,12,0.00
2013-3-15,79.0,62.3,46.3,48.8,42.8,36.8,77,51,30,30.28,30.06,12,1,12,0.00
2013-3-16,79.3,65.3,52.2,55.8,51.4,47.0,90,63,38,30.08,29.92,12,1,12,0.00
2013-3-17,78.6,65.3,53.0,60.9,56.5,49.9,94,75,50,30.00,29.80,15,1,15,0.00
2013-3-18,83.3,67.0,53.6,66.9,61.3,50.1,93,83,52,30.02,29.74,19,2,19,0.12
2013-3-19,70.8,57.2,43.6,50.0,40.8,33.5,92,59,27,30.15,30.02,16,1,16,0.00
2013-3-20,65.8,55.4,49.6,39.6,32.5,24.7,64,43,22,30.24,30.10,14,1,14,0.00
2013-3-21,60.4,50.0,41.4,36.9,31.1,22.6,72,49,32,30.13,29.91,10,1,10,0.00
2013-3-22,52.1,47.7,41.9,47.9,42.3,34.9,94,82,53,29.99,29.86,14,1,14,0.37
2013-3-23,75.2,62.0,52.1,67.1,58.4,48.0,96,88,72,29.88,29.60,9,0,10,0.51
2013-3-24,59.6,52.0,40.9,58.1,45.0,29.5,97,79,52,30.05,29.63,22,3,22,0.17
2013-3-25,51.2,41.8,32.9,30.8,27.3,21.4,81,58,38,30.33,30.05,20,2,20,0.00
2013-3-26,48.7,39.9,32.3,30.3,27.3,24.8,79,61,44,30.44,30.33,14,1,14,0.00
2013-3-27,60.4,43.5,28.2,35.4,29.7,25.4,93,63,29,30.49,30.33,9,0,9,0.00
2013-3-28,71.2,52.0,34.7,41.4,36.2,31.8,91,60,27,30.41,30.27,8,0,8,0.00
2013-3-29,74.5,59.9,46.4,50.2,44.7,38.9,85,60,33,30.33,30.18,9,0,9,0.00
2013-3-30,73.0,62.1,53.7,59.9,54.1,48.8,95,77,47,30.20,30.00,13,1,13,0.08
2013-3-31,71.7,60.8,55.1,64.2,58.2,53.7,96,91,73,30.04,29.85,12,0,12,0.34
2013-4-1,75.8,62.7,53.6,57.9,53.0,46.3,97,74,39,30.14,29.98,9,0,9,0.00
2013-4-2,78.0,63.6,49.5,55.5,50.0,42.6,89,64,40,30.17,30.02,13,1,13,0.00
2013-4-3,59.2,49.3,45.4,46.7,43.4,37.3,94,82,54,30.12,30.02,15,1,15,0.32
2013-4-4,52.3,48.8,45.3,49.5,47.0,43.3,96,93,89,30.08,29.97,13,1,13,0.02
2013-4-5,67.0,53.7,44.4,52.3,46.8,42.9,96,79,52,30.23,30.07,11,1,11,0.00
2013-4-6,77.0,59.9,42.8,51.7,46.3,41.2,96,65,33,30.18,30.03,11,1,11,0.00
2013-4-7,77.1,63.8,49.8,59.2,54.2,47.8,95,73,48,30.13,29.99,13,1,13,0.00
2013-4-8,83.0,69.4,58.5,64.1,60.4,56.2,95,75,49,30.06,29.93,14,2,15,0.00
2013-4-9,86.3,74.9,67.7,70.8,67.4,64.1,93,79,56,30.04,29.94,21,2,21,0.00
2013-4-10,83.8,75.3,69.9,71.1,67.5,65.8,88,77,62,29.99,29.81,16,3,16,0.00
2013-4-11,72.1,60.4,48.3,69.3,57.8,44.8,96,91,82,29.89,29.66,16,2,16,0.85
2013-4-12,72.3,56.2,42.4,51.0,45.8,40.9,96,72,37,30.05,29.89,8,0,11,0.00
2013-4-13,80.5,62.3,46.1,55.5,49.5,44.0,95,67,37,30.09,29.94,9,0,9,0.00
2013-4-14,72.2,62.5,56.3,63.1,57.3,50.5,96,84,70,29.96,29.74,14,1,17,0.40
2013-4-15,84.6,69.8,56.4,70.5,63.6,54.7,96,82,56,29.99,29.85,11,1,11,0.01
2013-4-16,85.0,77.1,71.9,72.0,70.1,68.8,93,80,60,30.10,29.99,12,1,12,0.01
2013-4-17,87.3,76.9,69.3,72.1,69.3,67.2,95,79,57,30.12,29.95,15,1,15,0.00
2013-4-18,83.8,73.1,55.1,71.2,66.7,52.8,93,81,63,29.96,29.71,24,3,24,0.48
2013-4-19,58.4,50.9,45.5,52.8,41.7,36.2,94,72,47,30.23,29.89,14,1,14,0.60
2013-4-20,70.8,54.3,39.6,45.7,41.7,37.0,95,67,35,30.32,30.18,10,0,10,0.00
2013-4-21,74.5,58.9,44.8,48.1,44.0,39.4,89,62,33,30.31,30.16,11,0,11,0.00
2013-4-22,78.8,63.1,46.3,58.3,50.9,43.3,91,67,42,30.20,30.05,11,0,11,0.00
2013-4-23,81.8,70.0,62.6,66.2,62.3,57.4,88,77,58,30.12,29.97,10,1,10,0.00
2013-4-24,68.7,59.1,50.8,64.4,55.1,46.0,95,87,76,30.30,30.00,14,1,14,0.74
2013-4-25,73.0,57.1,45.9,49.2,44.6,40.3,92,66,32,30.40,30.28,13,1,13,0.00
2013-4-26,81.0,64.0,47.6,61.2,51.6,42.7,86,66,44,30.36,30.19,10,0,10,0.00
2013-4-27,82.8,72.1,63.5,68.2,64.6,59.7,94,78,59,30.20,30.01,11,1,11,0.00
2013-4-28,75.0,67.8,61.1,69.1,64.5,59.5,95,89,76,30.04,29.97,9,0,11,0.54
2013-4-29,80.8,68.9,61.0,67.7,62.0,57.6,97,81,49,30.04,29.92,11,0,11,0.01
2013-4-30,80.9,69.0,58.2,67.3,63.1,56.5,96,83,60,29.98,29.90,11,0,11,0.07
2013-5-1,68.9,64.7,62.3,67.7,63.4,60.8,97,96,95,30.00,29.92,14,0,14,0.79
2013-5-2,71.3,65.5,62.5,66.8,63.3,61.3,97,93,83,30.04,29.94,11,0,11,0.26
2013-5-3,65.4,53.9,45.3,63.9,52.0,41.2,96,93,85,30.07,29.92,12,1,12,1.03
2013-5-4,69.2,52.7,38.2,50.9,43.4,36.9,96,74,36,30.06,29.89,14,0,14,0.02
2013-5-5,58.2,51.3,45.0,48.1,45.2,41.2,92,80,63,30.02,29.90,13,1,13,0.00
2013-5-6,67.2,58.8,51.1,57.1,51.9,45.9,90,78,67,30.02,29.96,10,1,10,0.00
2013-5-7,75.5,63.4,52.2,61.1,56.2,50.4,96,79,55,30.08,29.98,7,0,7,0.00
2013-5-8,82.6,67.7,53.6,63.2,58.3,51.9,96,75,46,30.15,30.05,5,0,6,0.00
2013-5-9,84.3,72.3,60.2,66.2,62.9,57.6,94,74,51,30.15,30.02,8,0,8,0.00
2013-5-10,77.5,69.3,62.9,67.6,64.9,61.7,96,86,67,30.07,29.91,12,0,12,0.99
2013-5-11,77.3,68.9,63.1,67.7,63.5,57.7,96,84,68,30.09,29.97,12,0,12,0.00
2013-5-12,73.7,63.8,55.4,57.8,51.4,43.8,94,67,40,30.23,30.09,12,1,14,0.00
2013-5-13,78.8,64.2,47.8,54.7,47.4,41.3,87,57,33,30.33,30.21,8,0,8,0.00
2013-5-14,86.7,70.1,54.2,59.1,55.5,50.0,92,64,33,30.28,30.14,6,0,6,0.00
2013-5-15,84.8,72.1,59.6,64.3,60.2,55.2,87,68,46,30.23,30.03,9,0,9,0.00
2013-5-16,82.3,72.0,62.5,67.4,63.4,58.3,89,75,54,30.07,29.91,12,1,12,0.00
2013-5-17,83.8,76.0,70.9,73.5,70.2,67.1,91,83,68,30.02,29.95,9,1,9,0.00
2013-5-18,89.0,78.8,70.7,74.5,71.4,68.6,94,79,60,30.08,29.97,8,0,8,0.00
2013-5-19,89.4,78.9,70.9,73.7,70.9,68.4,93,78,57,30.04,29.95,10,1,10,0.00
2013-5-20,91.5,80.9,73.6,73.8,71.7,69.7,91,75,53,30.04,29.90,11,1,11,0.00
2013-5-21,91.7,80.9,72.2,72.7,70.8,68.9,92,73,50,29.99,29.80,13,1,13,0.08
2013-5-22,81.5,70.7,63.7,72.1,66.6,62.1,96,87,70,30.01,29.86,20,0,20,0.60
2013-5-23,89.0,76.5,65.6,74.2,68.8,64.1,96,79,49,30.08,29.98,8,0,8,0.00
2013-5-24,85.2,74.2,64.4,68.7,63.5,55.7,91,71,46,30.24,30.08,12,1,12,0.00
2013-5-25,82.8,69.7,57.3,62.1,56.8,52.2,86,66,42,30.31,30.17,9,0,9,0.00
2013-5-26,88.2,74.3,61.7,65.6,60.0,53.3,88,64,35,30.24,30.13,7,0,7,0.00
2013-5-27,89.5,75.8,63.2,70.9,66.3,60.8,94,74,50,30.17,30.02,12,1,12,0.00
2013-5-28,89.5,77.0,67.0,68.8,64.2,59.8,87,66,45,30.10,30.01,11,1,11,0.00
2013-5-29,89.0,77.4,68.6,74.3,69.8,59.8,93,78,57,30.07,29.97,12,1,12,0.00
2013-5-30,86.6,76.5,71.7,74.7,71.5,68.9,94,85,64,30.05,29.95,14,1,14,0.04
2013-5-31,91.5,80.2,72.4,78.3,73.0,69.6,92,80,61,30.05,29.94,11,1,11,0.00
2013-6-1,91.8,79.5,73.0,75.9,72.3,70.4,93,80,57,30.01,29.91,11,0,11,0.00
2013-6-2,84.2,73.8,66.7,74.3,69.2,65.5,96,86,65,30.06,29.92,21,0,21,1.20
2013-6-3,86.9,77.2,70.4,72.7,69.5,67.4,94,78,56,30.00,29.90,11,1,11,0.00
2013-6-4,90.8,79.5,69.0,77.6,71.6,65.2,89,78,60,29.99,29.89,10,0,10,0.00
2013-6-5,91.7,78.0,69.4,77.2,72.9,68.2,96,86,59,29.97,29.81,18,0,18,0.78
2013-6-6,85.5,72.9,67.8,77.1,70.0,66.6,96,91,71,29.91,29.79,19,0,19,0.38
2013-6-7,81.9,73.7,68.4,72.6,68.7,66.4,96,85,68,29.94,29.80,9,0,9,0.07
2013-6-8,84.7,75.0,64.7,73.5,68.7,63.2,96,82,64,30.01,29.93,9,0,9,0.05
2013-6-9,88.0,76.0,69.7,76.7,71.6,67.9,96,87,66,30.01,29.90,10,0,10,0.26
2013-6-10,91.9,79.5,69.9,76.0,71.7,68.4,95,79,51,30.03,29.96,7,0,7,0.00
2013-6-11,92.5,82.2,73.3,77.3,74.4,71.5,95,79,56,30.12,30.02,5,0,5,0.00
2013-6-12,94.6,83.5,74.2,77.7,74.4,71.4,94,76,48,30.12,30.01,6,0,7,0.00
2013-6-13,93.8,84.0,74.6,78.0,75.1,71.4,93,76,57,30.06,29.88,10,0,10,0.00
2013-6-14,89.0,80.4,70.9,77.4,68.7,62.9,87,69,45,30.01,29.89,13,1,13,0.00
2013-6-15,92.0,78.8,65.6,73.0,67.8,62.2,90,71,48,30.06,29.98,8,0,8,0.00
2013-6-16,92.5,79.4,72.0,76.7,72.5,69.1,95,81,54,30.08,29.98,6,0,6,0.29
2013-6-17,91.9,81.5,72.9,78.3,73.9,70.6,96,79,53,30.02,29.91,8,0,8,0.00
2013-6-18,86.5,78.6,71.3,75.1,72.4,69.2,94,82,65,30.00,29.92,8,0,9,0.22
2013-6-19,88.2,77.6,71.3,78.2,72.5,69.8,95,85,65,30.06,29.96,6,0,6,0.02
2013-6-20,91.3,79.9,70.0,77.5,72.2,68.5,96,79,54,30.15,30.05,7,0,7,0.00
2013-6-21,91.8,80.7,70.2,77.4,72.3,68.1,95,77,54,30.17,30.08,9,0,9,0.00
2013-6-22,88.7,78.7,70.9,77.1,71.8,68.0,94,80,54,30.15,30.04,12,0,14,0.19
2013-6-23,90.2,80.5,71.0,76.5,72.5,69.2,95,78,56,30.12,30.04,10,0,10,0.00
2013-6-24,88.3,77.9,72.2,80.4,73.0,70.1,95,85,66,30.16,30.07,10,0,10,0.06
2013-6-25,95.5,82.1,72.8,76.6,73.5,70.8,95,77,49,30.14,30.00,7,0,7,0.00
2013-6-26,94.2,83.4,74.7,75.9,73.8,71.5,93,75,52,30.08,29.95,6,0,6,0.00
2013-6-27,94.3,84.4,75.6,78.0,74.6,71.4,92,74,55,30.03,29.92,7,0,7,0.00
2013-6-28,94.8,85.8,77.4,78.6,75.4,67.8,84,72,56,29.94,29.75,14,0,14,0.23
2013-6-29,91.7,79.8,70.1,76.9,70.2,64.0,96,75,45,29.83,29.72,8,0,9,0.01
2013-6-30,88.4,78.3,68.4,70.8,66.5,62.1,93,69,46,29.85,29.75,15,0,15,0.00
2013-7-1,85.5,76.8,67.2,68.2,66.0,63.6,92,71,52,29.96,29.83,13,0,13,0.00
2013-7-2,87.6,77.1,68.7,68.3,65.4,61.8,90,69,46,30.06,29.94,9,0,9,0.00
2013-7-3,89.5,77.1,65.4,69.4,65.7,62.4,92,70,46,30.09,29.99,9,0,9,0.00
2013-7-4,89.8,78.3,69.4,74.6,70.5,67.0,95,78,56,30.04,29.95,9,0,9,0.00
2013-7-5,84.1,76.8,71.2,75.1,72.0,68.5,93,86,70,30.06,29.99,12,0,12,0.00
2013-7-6,86.8,76.7,69.0,75.8,71.6,67.5,96,85,67,30.08,29.99,11,0,11,0.00
2013-7-7,91.2,79.4,73.4,76.8,73.4,71.2,94,83,60,30.12,30.03,6,0,6,0.00
2013-7-8,93.3,81.5,72.9,76.7,73.1,69.0,95,78,49,30.19,30.10,7,0,7,0.00
2013-7-9,95.5,82.8,74.0,78.2,74.6,71.2,93,78,52,30.20,30.07,7,0,7,0.00
2013-7-10,93.5,83.8,75.6,78.0,74.9,72.6,93,76,55,30.12,29.97,10,0,10,0.00
2013-7-11,81.2,76.7,70.4,76.2,73.5,68.6,96,90,78,30.05,29.92,10,0,10,1.00
2013-7-12,91.5,79.6,71.1,76.6,71.3,67.4,96,78,50,29.99,29.90,12,0,12,0.00
2013-7-13,89.2,79.2,70.3,70.6,67.0,64.2,87,68,45,30.01,29.93,11,0,11,0.00
2013-7-14,90.0,77.5,70.4,76.9,71.0,66.8,94,81,59,30.07,29.95,12,0,12,0.12
2013-7-15,88.8,77.9,69.7,78.9,72.6,68.2,96,85,62,30.17,30.04,9,0,9,0.10
2013-7-16,89.2,79.9,71.8,76.8,73.0,70.2,95,81,61,30.24,30.16,13,1,15,0.00
2013-7-17,94.2,82.7,72.4,77.8,73.5,70.6,95,76,51,30.28,30.15,9,0,9,0.00
2013-7-18,89.3,77.6,73.2,78.0,72.9,70.1,94,86,64,30.19,30.05,10,0,10,0.00
2013-7-19,91.3,78.8,71.5,77.6,73.4,70.3,96,84,60,30.12,29.98,9,0,9,0.00
2013-7-20,93.0,80.7,71.7,78.6,72.6,69.4,95,78,54,30.03,29.91,7,0,7,0.00
2013-7-21,92.2,80.2,72.7,75.8,72.5,69.4,93,78,53,30.04,29.96,11,0,11,0.00
2013-7-22,92.7,81.5,74.3,78.3,74.1,71.3,94,79,58,30.06,29.96,9,0,9,0.00
2013-7-23,92.3,83.7,76.6,77.5,74.8,72.1,93,76,54,30.04,29.89,12,0,12,0.00
2013-7-24,84.7,79.5,74.6,76.1,73.8,69.7,93,83,73,29.98,29.90,5,0,5,0.03
2013-7-25,90.8,79.3,73.1,75.1,70.6,63.3,95,77,48,30.08,29.94,9,0,9,0.01
2013-7-26,89.8,78.5,67.6,71.7,68.6,64.4,93,73,48,30.09,29.98,8,0,8,0.00
2013-7-27,81.7,75.4,70.5,76.3,72.0,68.8,96,89,78,30.00,29.90,10,0,10,0.91
2013-7-28,91.3,79.4,70.9,77.3,72.7,69.5,96,82,57,30.05,29.93,8,0,8,0.00
2013-7-29,93.2,81.6,71.3,78.7,73.1,69.5,95,77,50,30.14,30.04,7,0,7,0.00
2013-7-30,96.8,84.3,74.7,79.4,74.8,71.9,93,75,47,30.17,30.07,7,0,7,0.00
2013-7-31,93.3,84.6,78.2,76.0,71.9,60.6,90,68,36,30.11,29.97,8,0,8,0.00
2013-8-1,95.7,85.2,77.5,79.1,74.9,72.4,90,72,54,30.03,29.93,12,0,12,0.00
2013-8-2,95.5,84.1,73.4,77.0,74.1,71.2,93,74,51,30.02,29.96,6,0,6,0.00
2013-8-3,94.2,84.3,76.8,78.3,75.6,73.5,91,76,55,30.08,30.00,7,0,7,0.00
2013-8-4,94.4,82.7,76.1,80.6,76.4,72.7,94,82,57,30.11,30.01,11,0,11,0.19
2013-8-5,96.7,83.1,75.3,82.0,76.3,72.1,96,81,46,30.06,29.95,8,0,8,0.08
2013-8-6,96.3,84.3,76.0,78.5,75.7,73.6,95,77,52,30.01,29.91,16,0,16,0.00
2013-8-7,97.7,85.9,75.7,77.5,74.8,72.9,93,72,49,30.00,29.88,5,0,5,0.00
2013-8-8,99.1,86.8,77.1,78.3,76.1,73.8,93,73,47,29.99,29.89,8,0,8,0.00
2013-8-9,98.2,83.5,76.0,79.3,75.9,73.2,94,80,48,30.06,29.93,12,0,12,0.11
2013-8-10,93.7,80.1,75.0,81.2,75.7,72.7,96,87,58,30.12,30.03,8,0,8,0.91
2013-8-11,91.3,81.3,74.6,77.6,74.5,72.3,96,81,57,30.15,30.05,6,0,6,0.00
2013-8-12,94.5,81.5,74.8,77.7,74.3,71.4,95,80,53,30.14,30.00,6,0,6,0.00
2013-8-13,86.3,77.3,74.5,79.0,74.3,71.4,95,91,77,30.06,29.95,11,0,11,0.44
2013-8-14,86.3,78.0,73.3,76.3,73.0,68.8,96,85,65,30.03,29.95,12,0,12,0.16
2013-8-15,86.9,76.2,67.1,72.8,67.4,63.5,92,75,55,30.05,29.97,9,0,9,0.00
2013-8-16,86.8,76.2,68.2,73.7,68.4,63.6,95,78,54,30.04,29.96,9,0,9,1.04
2013-8-17,83.3,73.5,68.2,72.7,69.0,67.0,96,87,61,30.07,30.01,12,0,12,0.00
2013-8-18,79.4,73.4,69.0,72.4,69.5,66.6,94,88,73,30.10,30.03,14,0,14,0.00
2013-8-19,86.3,76.4,72.2,74.8,71.6,69.7,93,86,64,30.09,30.01,7,0,7,0.01
2013-8-20,90.8,78.9,70.0,76.6,72.7,68.5,96,83,60,30.10,30.02,8,0,8,0.01
2013-8-21,88.8,79.6,72.9,78.6,74.8,71.1,96,86,66,30.17,30.07,11,0,11,0.00
2013-8-22,92.5,79.5,71.5,79.4,74.2,69.7,95,85,57,30.14,30.01,13,0,13,0.44
2013-8-23,91.6,79.4,73.1,78.0,75.0,71.9,97,87,61,30.07,29.98,16,0,16,0.10
2013-8-24,88.8,77.8,72.6,80.0,74.0,71.0,96,89,64,30.16,30.03,18,0,18,0.20
2013-8-25,87.9,78.2,71.6,76.7,73.4,70.4,96,86,67,30.24,30.15,12,0,12,0.00
2013-8-26,89.1,78.1,70.0,71.5,68.4,64.2,95,74,49,30.26,30.14,11,0,11,0.00
2013-8-27,87.7,75.1,64.3,68.7,64.9,61.9,94,73,48,30.19,30.08,7,0,7,0.00
2013-8-28,88.2,75.9,64.2,69.6,65.9,61.9,95,73,49,30.14,30.05,7,0,7,0.00
2013-8-29,91.7,78.8,67.9,73.0,69.0,65.4,94,74,50,30.13,30.01,7,0,7,0.00
2013-8-30,93.3,81.6,71.3,74.6,70.6,68.0,92,71,50,30.07,29.94,7,0,7,0.00
2013-8-31,95.0,82.8,72.6,76.5,72.5,69.8,92,73,49,30.00,29.88,6,0,6,0.00
2013-9-1,96.0,83.8,73.6,74.0,72.0,68.2,91,70,44,29.97,29.85,7,0,7,0.00
2013-9-2,91.8,82.0,74.8,80.8,73.8,71.9,92,77,56,29.99,29.87,5,0,8,0.13
2013-9-3,94.3,82.5,74.1,76.6,73.8,71.8,94,77,54,30.01,29.90,8,0,8,0.00
2013-9-4,95.3,82.5,72.5,76.8,71.5,66.2,94,72,42,30.10,29.98,8,0,8,0.00
2013-9-5,95.4,83.5,73.9,76.1,71.6,64.2,95,71,38,30.14,30.03,6,0,6,0.00
2013-9-6,94.4,82.5,73.3,77.5,71.4,59.0,94,72,33,30.14,30.01,9,0,9,0.00
2013-9-7,93.7,80.8,70.6,73.4,69.1,63.7,92,70,38,30.09,29.98,10,0,10,0.00
2013-9-8,94.8,81.4,68.8,72.7,68.5,66.0,94,68,42,30.03,29.94,5,0,8,0.00
2013-9-9,95.6,82.0,70.3,73.4,69.6,65.0,93,69,39,30.09,29.99,7,0,7,0.00
2013-9-10,95.3,82.0,71.9,74.7,71.4,68.8,92,72,46,30.15,30.04,6,0,6,0.00
2013-9-11,93.3,81.4,70.6,72.4,69.7,65.8,94,70,43,30.17,30.05,7,0,7,0.00
2013-9-12,93.9,80.8,69.9,74.0,68.3,64.6,94,68,41,30.10,29.93,11,0,11,0.00
2013-9-13,92.2,79.9,72.0,76.4,69.3,65.6,86,71,52,29.96,29.85,9,0,9,0.11
2013-9-14,86.0,73.3,63.6,64.4,58.9,53.8,81,63,36,30.04,29.95,9,0,9,0.00
2013-9-15,92.5,75.5,59.5,67.0,60.7,55.3,88,63,35,30.11,30.03,8,0,8,0.00
2013-9-16,92.9,80.2,69.3,74.2,68.2,64.0,91,69,42,30.15,30.03,8,0,8,0.00
2013-9-17,93.4,79.2,67.0,68.5,64.2,60.2,88,63,38,30.13,30.00,13,0,13,0.00
2013-9-18,89.0,78.6,69.7,74.6,70.0,60.5,93,76,60,30.12,30.01,10,0,12,0.00
2013-9-19,92.5,79.8,70.0,74.8,71.1,67.9,95,77,50,30.10,29.97,12,1,12,0.00
2013-9-20,88.1,76.8,70.9,78.9,73.2,68.8,96,89,65,30.04,29.81,18,0,18,1.57
2013-9-21,76.8,72.0,67.5,73.4,69.1,60.4,97,91,78,29.87,29.79,12,0,12,3.15
2013-9-22,78.3,67.6,58.9,61.5,58.0,55.0,88,73,50,29.92,29.83,11,0,11,0.00
2013-9-23,83.8,70.6,56.1,72.5,64.6,54.3,95,82,64,29.92,29.85,10,0,10,0.00
2013-9-24,78.2,74.1,71.3,75.2,72.1,69.7,96,93,89,29.90,29.80,9,0,9,1.83
2013-9-25,83.9,74.6,67.2,73.2,67.3,61.6,97,80,48,29.87,29.80,7,0,7,0.00
2013-9-26,84.6,72.9,62.4,69.3,64.9,60.9,96,79,51,29.99,29.85,7,0,7,0.00
2013-9-27,84.5,73.7,65.9,70.7,67.2,64.4,96,81,57,30.08,29.99,8,0,8,0.00
2013-9-28,83.0,72.2,64.0,67.2,63.2,60.6,90,75,52,30.13,30.04,7,0,7,0.00
2013-9-29,73.8,69.5,64.5,69.0,65.6,61.5,94,87,79,30.09,29.98,6,0,6,0.00
2013-9-30,83.9,73.6,67.6,74.5,69.4,65.7,95,87,71,30.01,29.92,12,0,12,0.01
2013-10-1,85.9,75.4,67.3,73.6,69.9,65.8,95,84,58,30.09,29.99,8,0,8,0.00
2013-10-2,84.1,75.6,70.3,74.9,70.9,68.6,96,86,67,30.11,30.00,8,0,8,0.04
2013-10-3,84.4,75.5,70.4,75.5,72.0,68.0,95,89,73,30.08,29.98,7,0,7,0.09
2013-10-4,88.3,78.6,72.3,75.7,72.4,70.4,95,83,59,30.08,30.00,12,0,12,0.00
2013-10-5,87.1,77.9,72.0,75.9,72.5,70.2,95,84,64,30.05,29.93,11,0,11,0.00
2013-10-6,75.1,68.5,59.9,72.0,62.9,53.4,96,83,60,30.01,29.88,13,0,13,0.08
2013-10-7,72.1,63.6,56.3,56.2,53.4,49.5,83,70,54,30.10,29.99,11,1,11,0.00
2013-10-8,75.3,63.0,54.4,57.1,54.1,51.2,90,74,49,30.11,30.03,9,0,9,0.00
2013-10-9,77.6,65.1,55.0,69.1,61.3,53.1,96,88,71,30.15,30.06,10,0,10,0.00
2013-10-10,80.6,68.7,60.5,69.9,64.1,59.0,97,86,63,30.16,30.03,6,0,6,0.00
2013-10-11,83.2,71.1,63.4,70.7,65.5,61.7,97,84,57,30.09,30.00,5,0,5,0.00
2013-10-12,86.7,72.1,63.9,72.7,67.4,62.4,97,86,58,30.12,30.02,12,0,12,0.00
2013-10-13,82.0,73.6,67.9,72.2,68.9,66.3,96,86,65,30.23,30.10,6,0,6,0.00
2013-10-14,83.5,72.0,63.8,66.5,64.1,61.4,94,78,50,30.18,30.06,8,0,8,0.00
2013-10-15,82.7,72.9,64.4,69.2,65.4,61.9,93,79,56,30.09,29.97,8,0,8,0.00
2013-10-16,76.3,70.3,64.3,71.3,67.7,63.0,96,92,81,30.01,29.93,8,0,8,0.24
2013-10-17,64.4,61.6,54.4,63.1,59.3,52.7,96,92,84,30.07,29.95,10,0,10,0.03
2013-10-18,70.2,60.0,50.6,60.3,55.6,49.1,97,87,62,30.12,29.97,7,0,7,0.01
2013-10-19,70.0,61.2,54.1,60.5,56.2,49.1,95,84,67,30.10,29.96,10,0,10,0.01
2013-10-20,67.3,54.4,44.4,49.6,45.6,37.2,95,75,36,30.15,30.03,7,0,7,0.00
2013-10-21,72.0,58.3,45.4,59.8,52.9,43.5,96,84,57,30.12,30.01,5,0,5,0.00
2013-10-22,70.0,60.6,53.4,59.8,55.6,50.5,96,84,64,30.05,29.98,7,0,7,0.00
2013-10-23,68.0,56.9,49.0,51.2,47.4,42.3,93,73,40,30.18,30.05,10,0,10,0.00
2013-10-24,74.8,59.3,45.5,56.6,49.5,43.3,93,72,48,30.33,30.14,13,0,13,0.00
2013-10-25,59.7,51.5,44.2,47.0,40.1,35.5,82,66,42,30.49,30.33,14,0,14,0.00
2013-10-26,72.0,54.3,40.1,50.4,42.9,36.5,94,68,37,30.37,30.17,6,0,6,0.00
2013-10-27,68.6,60.7,51.7,59.2,54.5,46.7,95,80,67,30.18,30.08,5,0,7,0.19
2013-10-28,74.9,65.6,59.8,67.7,62.9,58.4,97,91,75,30.22,30.11,5,0,5,0.08
2013-10-29,78.5,69.1,62.7,67.4,63.7,61.2,96,84,63,30.27,30.17,9,0,9,0.00
2013-10-30,78.6,69.5,63.8,68.0,64.9,61.6,95,86,68,30.23,30.04,14,0,14,0.00
2013-10-31,72.3,69.7,64.3,70.3,67.7,62.5,97,93,89,30.04,29.76,14,2,14,0.97
2013-11-1,70.9,61.8,53.1,62.6,54.4,47.3,96,79,44,29.96,29.86,7,0,7,0.00
2013-11-2,66.0,57.9,52.7,51.9,47.9,43.2,93,71,48,30.24,29.95,12,1,12,0.00
2013-11-3,63.7,52.9,45.2,47.4,44.5,41.0,91,74,50,30.32,30.17,7,0,12,0.00
2013-11-4,68.0,54.9,42.9,54.7,48.8,41.1,95,81,60,30.33,30.22,9,0,9,0.00
2013-11-5,76.0,64.0,54.3,61.3,55.9,51.0,89,75,56,30.29,30.15,16,1,16,0.00
2013-11-6,75.5,65.5,56.2,67.7,60.3,51.5,95,84,75,30.19,30.08,12,0,12,0.06
2013-11-7,58.6,51.8,45.9,55.2,44.1,40.6,94,76,54,30.39,30.18,16,1,16,0.00
2013-11-8,61.3,50.6,39.1,45.1,40.8,36.4,91,71,46,30.42,30.24,12,0,12,0.00
2013-11-9,61.4,53.2,46.3,52.4,47.2,41.0,92,80,66,30.32,30.22,4,0,4,0.01
2013-11-10,68.3,57.6,50.1,53.7,50.8,47.8,92,79,56,30.36,30.27,7,0,7,0.00
2013-11-11,71.5,56.9,45.7,55.5,49.4,44.0,96,79,44,30.31,30.19,6,0,6,0.00
2013-11-12,53.3,47.2,37.0,51.0,41.6,28.1,96,81,67,30.60,30.25,18,1,18,0.00
2013-11-13,52.4,39.5,31.2,30.0,26.7,22.0,83,63,32,30.66,30.48,6,1,15,0.00
2013-11-14,61.9,45.2,28.2,42.9,34.4,25.0,92,68,43,30.48,30.20,8,0,8,0.00
2013-11-15,64.3,56.1,49.6,59.9,52.2,41.0,96,87,72,30.20,30.05,6,0,6,0.06
2013-11-16,74.5,65.8,56.4,67.6,63.0,55.3,97,91,78,30.09,29.97,13,1,13,0.00
2013-11-17,77.5,71.8,67.2,72.4,69.3,65.4,96,92,83,29.98,29.86,10,1,10,0.00
2013-11-18,72.6,63.4,53.9,71.4,49.1,37.9,96,63,31,30.21,29.98,12,1,12,0.04
2013-11-19,57.6,50.4,39.6,41.8,34.1,30.1,75,54,36,30.28,30.14,10,0,12,0.00
2013-11-20,68.8,50.9,35.8,48.5,40.6,31.4,87,70,44,30.19,30.08,9,0,9,0.00
2013-11-21,71.7,59.6,50.6,62.6,56.0,48.5,95,88,72,30.25,30.15,11,1,11,0.00
2013-11-22,65.5,62.4,56.9,64.3,60.9,55.8,97,95,91,30.29,30.17,9,0,9,0.67
2013-11-23,56.9,48.3,39.8,55.8,46.0,32.2,97,92,72,30.49,30.26,18,2,18,0.24
2013-11-24,46.4,38.4,31.4,32.1,26.2,23.4,79,62,40,30.56,30.39,19,1,19,0.00
2013-11-25,44.2,40.0,36.1,43.1,34.7,24.2,96,82,62,30.40,30.04,11,0,11,3.25
2013-11-26,45.1,41.4,37.9,44.3,40.2,35.2,97,96,89,30.12,29.84,16,1,17,0.78
2013-11-27,40.1,35.4,29.7,36.0,27.1,23.2,92,72,55,30.47,30.11,16,2,16,0.01
2013-11-28,46.1,34.1,24.7,29.2,24.7,11.2,88,71,26,30.54,30.45,6,0,6,0.00
2013-11-29,54.6,38.4,26.3,34.0,28.8,24.6,95,72,35,30.60,30.48,6,0,6,0.00
2013-11-30,62.9,42.9,27.4,37.6,31.6,25.5,95,70,27,30.51,30.30,6,0,6,0.00
2013-12-1,63.5,52.2,37.9,51.2,43.8,34.5,89,74,56,30.31,30.01,7,0,7,0.00
2013-12-2,72.5,60.7,54.6,61.6,55.3,49.7,94,83,68,30.01,29.75,5,0,7,0.00
2013-12-3,76.9,65.9,54.1,64.5,61.1,52.3,96,85,63,29.80,29.69,11,1,11,0.00
2013-12-4,79.2,71.0,66.0,68.4,66.0,63.8,94,85,66,29.94,29.80,9,1,12,0.00
2013-12-5,80.1,67.0,46.7,70.4,63.0,45.1,95,87,66,30.03,29.89,13,1,13,0.00
2013-12-6,46.5,41.4,33.7,45.1,40.1,32.4,96,95,93,30.35,30.00,20,1,20,0.19
2013-12-7,35.2,33.6,31.8,33.1,31.8,30.7,96,93,90,30.47,30.31,15,1,15,0.00
2013-12-8,43.2,39.3,34.6,42.3,38.2,33.1,97,96,94,30.32,30.12,4,0,4,0.74
2013-12-9,42.9,40.6,37.0,42.0,39.6,36.0,97,96,94,30.25,30.14,11,1,11,0.34
2013-12-10,44.9,36.3,29.0,36.0,31.7,27.1,96,84,60,30.46,30.21,15,1,16,0.02
2013-12-11,55.5,39.5,27.9,38.0,32.1,26.4,95,77,39,30.53,30.41,11,0,11,0.00
2013-12-12,49.8,37.7,29.6,32.9,26.8,22.5,88,67,35,30.62,30.44,11,0,11,0.00
2013-12-13,53.2,42.3,27.5,46.9,32.9,23.8,91,71,44,30.44,29.93,18,1,18,0.05
2013-12-14,59.9,51.1,41.6,56.3,48.6,35.9,97,91,80,30.16,29.84,15,1,15,0.34
2013-12-15,41.6,36.8,29.1,35.9,32.3,27.4,94,84,76,30.36,30.16,14,1,14,0.01
2013-12-16,62.5,41.4,28.3,41.1,32.4,26.8,96,75,34,30.39,30.26,7,0,7,0.00
2013-12-17,65.8,46.5,33.8,42.5,37.1,30.9,96,73,40,30.37,30.26,4,0,8,0.00
2013-12-18,69.1,48.8,33.9,42.6,38.1,32.3,96,70,34,30.41,30.24,7,0,7,0.00
2013-12-19,67.8,56.9,43.3,57.2,49.7,36.6,87,77,68,30.24,30.05,13,1,13,0.00
2013-12-20,74.3,66.3,58.0,66.6,62.3,55.1,93,87,75,30.07,29.94,14,2,14,0.00
2013-12-21,78.1,71.0,56.8,69.1,65.6,54.9,95,84,69,29.94,29.67,20,3,23,1.32
2013-12-22,62.4,55.9,44.0,59.1,53.7,41.5,97,93,77,30.24,29.82,10,0,10,0.22
2013-12-23,44.3,38.8,33.3,41.8,33.3,28.8,91,81,66,30.55,30.24,17,2,17,0.00
2013-12-24,46.4,35.9,29.2,30.3,27.9,24.7,88,74,49,30.61,30.45,12,1,12,0.00
2013-12-25,48.7,35.0,24.1,31.2,26.4,20.8,89,73,42,30.47,30.35,8,0,8,0.00
2013-12-26,54.8,40.7,29.2,38.4,33.6,27.2,95,78,52,30.46,30.36,8,0,8,0.00
2013-12-27,53.9,43.7,32.5,38.4,34.3,30.3,94,72,44,30.50,30.37,8,0,8,0.00
2013-12-28,46.3,44.9,42.2,45.1,41.1,33.4,96,87,62,30.37,29.99,6,0,6,0.86
2013-12-29,59.7,48.5,43.1,45.4,43.4,40.6,96,84,52,30.17,30.01,9,0,9,0.00
2013-12-30,45.4,42.9,37.1,43.5,39.9,33.8,94,89,83,30.42,30.14,7,0,7,0.00
2013-12-31,45.0,38.7,34.8,35.7,33.5,31.9,90,82,64,30.51,30.35,8,0,8,0.00
2014-1-1,61.9,47.6,36.3,51.3,43.2,33.5,95,85,66,30.35,30.06,8,0,8,0.10
2014-1-2,54.7,44.0,30.6,53.6,38.0,22.6,97,80,59,30.43,29.99,19,2,19,0.37